GW4542 Weather Reports


time (UTC)temp
C
wind
direction
speed
KPH
gust
KPH
rain 1hr
cm
rain 24hr
cm
rain mn
cm
humidity
%
barometer
mb
20260507080114 4 318 14.5 16.1 0.00 0.00 0.00 40 1023.5
20260507075608 4 256 9.7 11.3 0.00 0.00 0.00 40 1023.4
20260507075105 4 263 8.0 9.7 0.00 0.00 0.00 39 1023.4
20260507074602 4 280 11.3 12.9 0.00 0.00 0.00 39 1023.6
20260507074100 4 227 8.0 11.3 0.00 0.00 0.00 39 1023.6
20260507073556 5 248 9.7 12.9 0.00 0.00 0.00 40 1023.5
20260507073052 5 268 11.3 14.5 0.00 0.00 0.00 39 1023.6
20260507072550 5 268 8.0 9.7 0.00 0.00 0.00 39 1023.5
20260507072047 5 240 8.0 9.7 0.00 0.00 0.00 39 1023.5
20260507071545 5 266 8.0 9.7 0.00 0.00 0.00 39 1023.4
20260507071041 5 244 9.7 11.3 0.00 0.00 0.00 39 1023.5
20260507070538 5 289 9.7 11.3 0.00 0.00 0.00 39 1023.4
20260507070035 5 259 9.7 11.3 0.00 0.00 0.00 39 1023.3
20260507065531 5 266 8.0 9.7 0.00 0.00 0.00 39 1023.5
20260507065029 5 260 8.0 12.9 0.00 0.00 0.00 39 1023.6
20260507064527 5 258 8.0 9.7 0.00 0.00 0.00 40 1023.6
20260507064025 5 260 8.0 9.7 0.00 0.00 0.00 39 1023.4
20260507063522 5 268 9.7 11.3 0.00 0.00 0.00 38 1023.5
20260507063019 6 265 9.7 11.3 0.00 0.00 0.00 38 1023.4
20260507062516 6 273 9.7 11.3 0.00 0.00 0.00 36 1023.3
20260507062014 6 270 9.7 11.3 0.00 0.00 0.00 37 1023.3
20260507061511 6 282 8.0 11.3 0.00 0.00 0.00 37 1023.3
20260507061009 6 227 4.8 6.4 0.00 0.00 0.00 36 1023.3
20260507060507 7 279 6.4 6.4 0.00 0.00 0.00 35 1023.3
20260507060003 7 247 9.7 11.3 0.00 0.00 0.00 34 1023.5
20260507055458 6 264 6.4 9.7 0.00 0.00 0.00 37 1023.3
20260507054954 6 223 9.7 11.3 0.00 0.00 0.00 36 1023.6
20260507054450 6 267 8.0 9.7 0.00 0.00 0.00 37 1023.4
20260507053948 7 286 6.4 9.7 0.00 0.00 0.00 35 1023.4
20260507053446 6 202 3.2 3.2 0.00 0.00 0.00 36 1023.5
20260507052944 7 273 6.4 9.7 0.00 0.00 0.00 36 1023.3
20260507052441 8 265 12.9 14.5 0.00 0.00 0.00 32 1023.5
20260507051938 8 303 9.7 11.3 0.00 0.00 0.00 32 1023.5
20260507051436 8 259 9.7 12.9 0.00 0.00 0.00 32 1023.4
20260507050932 9 266 8.0 12.9 0.00 0.00 0.00 32 1023.3
20260507050429 8 233 14.5 16.1 0.00 0.00 0.00 32 1023.3
20260507045926 9 230 16.1 20.9 0.00 0.00 0.00 32 1023.6
20260507045422 9 264 12.9 16.1 0.00 0.00 0.00 32 1023.3
20260507044920 9 264 16.1 17.7 0.00 0.00 0.00 32 1023.4
20260507044416 9 259 12.9 14.5 0.00 0.00 0.00 32 1023.3
20260507043912 9 246 19.3 22.5 0.00 0.00 0.00 32 1023.3
20260507043409 9 244 14.5 16.1 0.00 0.00 0.00 31 1023.1
20260507042905 8 241 11.3 12.9 0.00 0.00 0.00 32 1023.0
20260507042401 8 221 11.3 12.9 0.00 0.00 0.00 31 1023.0
20260507041852 9 259 14.5 16.1 0.00 0.00 0.00 31 1022.9
20260507041349 9 249 12.9 16.1 0.00 0.00 0.00 31 1022.9
20260507040846 10 237 14.5 17.7 0.00 0.00 0.00 31 1022.7
20260507040342 9 274 12.9 16.1 0.00 0.00 0.00 31 1022.7
20260507035838 9 274 11.3 12.9 0.00 0.00 0.00 31 1022.5
20260507035334 9 271 9.7 11.3 0.00 0.00 0.00 31 1022.7
20260507034832 9 239 12.9 14.5 0.00 0.00 0.00 31 1022.8
20260507034328 9 239 9.7 11.3 0.00 0.00 0.00 30 1022.5
20260507033826 10 273 6.4 6.4 0.00 0.00 0.00 30 1022.4
20260507033324 10 244 9.7 11.3 0.00 0.00 0.00 30 1022.2
20260507032821 10 261 11.3 14.5 0.00 0.00 0.00 30 1022.2
20260507032317 10 256 8.0 11.3 0.00 0.00 0.00 30 1021.9
20260507031814 10 269 6.4 9.7 0.00 0.00 0.00 30 1021.9
20260507031311 10 277 9.7 11.3 0.00 0.00 0.00 30 1022.0
20260507030807 10 251 9.7 9.7 0.00 0.00 0.00 30 1021.8
20260507030305 10 273 8.0 11.3 0.00 0.00 0.00 29 1021.8
20260507025801 11 277 9.7 12.9 0.00 0.00 0.00 27 1021.8
20260507025259 11 277 8.0 11.3 0.00 0.00 0.00 26 1021.4
20260507024757 10 247 11.3 14.5 0.00 0.00 0.00 27 1021.2
20260507024254 11 69 8.0 11.3 0.00 0.00 0.00 26 1021.3
20260507023749 10 270 4.8 6.4 0.00 0.00 0.00 26 1021.3
20260507023246 11 268 4.8 6.4 0.00 0.00 0.00 26 1021.5
20260507022743 11 241 9.7 12.9 0.00 0.00 0.00 25 1021.3
20260507022240 11 234 6.4 6.4 0.00 0.00 0.00 24 1020.9
20260507021736 11 256 4.8 6.4 0.00 0.00 0.00 24 1020.9
20260507021231 11 253 8.0 11.3 0.00 0.00 0.00 24 1020.9
20260507020730 12 255 6.4 9.7 0.00 0.00 0.00 24 1020.7
20260507020226 12 192 8.0 12.9 0.00 0.00 0.00 23 1020.8
20260507015724 12 191 4.8 6.4 0.00 0.00 0.00 23 1020.6
20260507015221 13 289 6.4 6.4 0.00 0.00 0.00 22 1020.7
20260507014717 13 216 4.8 6.4 0.00 0.00 0.00 21 1020.6
20260507014214 13 289 4.8 9.7 0.00 0.00 0.00 22 1020.7
20260507013710 13 203 6.4 9.7 0.00 0.00 0.00 21 1020.4
20260507013208 13 253 9.7 12.9 0.00 0.00 0.00 21 1020.6
20260507012705 13 261 11.3 12.9 0.00 0.00 0.00 20 1020.3
20260507012201 14 270 4.8 4.8 0.00 0.00 0.00 20 1020.4
20260507011659 14 13 6.4 9.7 0.00 0.00 0.00 21 1020.7
20260507011155 14 245 8.0 11.3 0.00 0.00 0.00 21 1020.4
20260507010654 14 266 9.7 11.3 0.00 0.00 0.00 22 1020.2
20260507010150 14 246 16.1 20.9 0.00 0.00 0.00 22 1020.0
20260507005648 15 284 11.3 11.3 0.00 0.00 0.00 21 1020.4
20260507005144 15 318 8.0 9.7 0.00 0.00 0.00 21 1020.2
20260507004641 15 164 6.4 6.4 0.00 0.00 0.00 21 1020.1
20260507004139 15 202 6.4 11.3 0.00 0.00 0.00 21 1020.3
20260507003635 15 254 17.7 22.5 0.00 0.00 0.00 21 1020.1
20260507003130 15 266 9.7 14.5 0.00 0.00 0.00 22 1020.0
20260507002627 15 33 9.7 12.9 0.00 0.00 0.00 21 1020.0
20260507002122 15 189 6.4 9.7 0.00 0.00 0.00 20 1020.0
20260507001619 15 248 9.7 11.3 0.00 0.00 0.00 20 1019.7
20260507001117 16 196 8.0 9.7 0.00 0.00 0.00 20 1020.0
20260507000613 16 272 11.3 12.9 0.00 0.00 0.00 20 1019.7
20260507000108 16 284 4.8 9.7 0.00 0.00 0.00 19 1020.0
20260506235606 16 288 14.5 16.1 0.00 0.00 0.00 20 1019.6
20260506235106 16 306 6.4 9.7 0.00 0.00 0.00 20 1019.6
20260506234604 16 296 6.4 12.9 0.00 0.00 0.00 20 1019.5
20260506234101 16 347 9.7 11.3 0.00 0.00 0.00 20 1019.5
20260506233558 16 260 16.1 22.5 0.00 0.00 0.00 20 1019.6
20260506233055 16 342 9.7 16.1 0.00 0.00 0.00 19 1019.5
20260506232551 16 17 8.0 9.7 0.00 0.00 0.00 19 1019.5
20260506232046 16 66 4.8 6.4 0.00 0.00 0.00 17 1019.6
20260506231544 17 183 1.6 1.6 0.00 0.00 0.00 19 1019.1
20260506231041 16 204 1.6 3.2 0.00 0.00 0.00 18 1019.2
20260506230538 16 359 9.7 12.9 0.00 0.00 0.00 18 1019.3
20260506230035 16 23 9.7 11.3 0.00 0.00 0.00 19 1018.7
20260506225532 16 263 8.0 11.3 0.00 0.00 0.00 22 1019.1
20260506225028 16 262 17.7 20.9 0.00 0.00 0.00 21 1019.3
20260506224525 16 280 6.4 11.3 0.00 0.00 0.00 19 1019.2
20260506224022 16 206 12.9 14.5 0.00 0.00 0.00 20 1019.1
20260506223518 16 275 8.0 12.9 0.00 0.00 0.00 20 1019.2
20260506223014 15 178 4.8 6.4 0.00 0.00 0.00 23 1019.3
20260506222511 16 274 9.7 11.3 0.00 0.00 0.00 20 1019.3
20260506222008 16 199 6.4 6.4 0.00 0.00 0.00 21 1019.1
20260506221505 16 296 8.0 11.3 0.00 0.00 0.00 23 1019.1
20260506221003 15 277 14.5 16.1 0.00 0.00 0.00 22 1019.3
20260506220458 15 257 16.1 17.7 0.00 0.00 0.00 22 1019.1
20260506215954 16 303 4.8 4.8 0.00 0.00 0.00 22 1019.3
20260506215451 16 230 11.3 14.5 0.00 0.00 0.00 23 1019.1
20260506214947 16 228 8.0 11.3 0.00 0.00 0.00 23 1019.2
20260506214444 15 299 14.5 16.1 0.00 0.00 0.00 24 1019.2
20260506213942 16 218 1.6 1.6 0.00 0.00 0.00 22 1019.3
20260506213439 16 297 1.6 3.2 0.00 0.00 0.00 24 1019.2
20260506212936 15 249 9.7 12.9 0.00 0.00 0.00 23 1019.3
20260506212432 15 330 12.9 16.1 0.00 0.00 0.00 24 1019.3
20260506211932 15 285 12.9 14.5 0.00 0.00 0.00 23 1019.5
20260506211429 15 14 8.0 11.3 0.00 0.00 0.00 25 1019.2
20260506210926 15 176 0.0 1.6 0.00 0.00 0.00 26 1019.5
20260506210422 15 263 12.9 14.5 0.00 0.00 0.00 25 1019.2
20260506205920 15 229 8.0 11.3 0.00 0.00 0.00 25 1019.3
20260506205415 14 315 11.3 12.9 0.00 0.00 0.00 25 1019.5
20260506204912 14 355 8.0 12.9 0.00 0.00 0.00 27 1019.3
20260506204410 14 261 11.3 14.5 0.00 0.00 0.00 28 1019.1
20260506203907 14 303 11.3 14.5 0.00 0.00 0.00 26 1019.1
20260506203404 14 289 12.9 20.9 0.00 0.00 0.00 26 1019.0
20260506202901 14 301 9.7 16.1 0.00 0.00 0.00 27 1019.5
20260506202358 14 194 12.9 14.5 0.00 0.00 0.00 27 1019.3
20260506201854 15 315 19.3 25.7 0.00 0.00 0.00 28 1019.0
20260506201352 15 241 14.5 16.1 0.00 0.00 0.00 29 1019.5
20260506200848 14 272 17.7 22.5 0.00 0.00 0.00 30 1019.0
20260506200344 14 229 27.4 33.8 0.00 0.00 0.00 31 1019.1
20260506195841 13 296 19.3 22.5 0.00 0.00 0.00 34 1019.2
20260506195338 13 295 20.9 24.1 0.00 0.00 0.00 33 1019.1
20260506194835 15 261 24.1 30.6 0.00 0.00 0.00 32 1018.7
20260506194332 14 257 20.9 27.4 0.00 0.00 0.00 35 1019.1
20260506193829 14 283 25.7 35.4 0.00 0.00 0.00 34 1018.9
20260506193326 13 263 25.7 29.0 0.00 0.00 0.00 35 1019.2
20260506192822 13 246 22.5 25.7 0.00 0.00 0.00 36 1019.1
20260506192319 13 266 29.0 30.6 0.00 0.00 0.00 36 1018.9
20260506191816 13 273 20.9 24.1 0.00 0.00 0.00 35 1019.0
20260506191312 13 262 32.2 37.0 0.00 0.00 0.00 35 1019.0
20260506190809 13 260 19.3 24.1 0.00 0.00 0.00 37 1018.6
20260506190306 12 282 24.1 27.4 0.00 0.00 0.00 36 1019.0
20260506185803 12 272 27.4 29.0 0.00 0.00 0.00 37 1019.1
20260506185259 12 274 30.6 35.4 0.00 0.00 0.00 37 1019.1
20260506184757 13 281 27.4 33.8 0.00 0.00 0.00 34 1019.1
20260506184254 12 253 22.5 24.1 0.00 0.00 0.00 36 1019.3
20260506183751 12 258 24.1 27.4 0.00 0.00 0.00 36 1019.2
20260506183251 12 281 20.9 25.7 0.00 0.00 0.00 36 1019.0
20260506182749 12 281 12.9 16.1 0.00 0.00 0.00 36 1019.0
20260506182246 12 274 22.5 25.7 0.00 0.00 0.00 37 1019.1
20260506181744 12 254 16.1 17.7 0.00 0.00 0.00 34 1019.2
20260506181241 13 251 14.5 14.5 0.00 0.00 0.00 33 1019.0
20260506180738 13 291 8.0 9.7 0.00 0.00 0.00 34 1019.2
20260506180234 12 269 20.9 24.1 0.00 0.00 0.00 35 1019.3
20260506175730 11 253 14.5 20.9 0.00 0.00 0.00 37 1019.1
20260506175227 12 258 17.7 20.9 0.00 0.00 0.00 37 1018.7
20260506174725 11 285 25.7 29.0 0.00 0.00 0.00 38 1019.2
20260506174221 12 239 16.1 24.1 0.00 0.00 0.00 39 1018.9
20260506173719 11 302 12.9 14.5 0.00 0.00 0.00 39 1019.0
20260506173216 11 271 19.3 24.1 0.00 0.00 0.00 42 1018.7
20260506172713 11 245 14.5 17.7 0.00 0.00 0.00 42 1018.7
20260506172209 10 297 22.5 25.7 0.00 0.00 0.00 44 1018.5
20260506171707 11 255 24.1 27.4 0.00 0.00 0.00 44 1018.7
20260506171204 10 276 20.9 29.0 0.00 0.00 0.00 49 1018.5
20260506170702 10 305 22.5 25.7 0.00 0.00 0.00 49 1018.6
20260506170158 9 276 19.3 22.5 0.00 0.00 0.00 53 1018.1
20260506165657 9 279 27.4 35.4 0.00 0.00 0.00 54 1018.0
20260506165153 10 238 22.5 25.7 0.00 0.00 0.00 53 1018.0
20260506164650 10 277 24.1 29.0 0.00 0.00 0.00 52 1018.1
20260506164148 10 314 17.7 24.1 0.00 0.00 0.00 55 1018.0
20260506163644 9 277 16.1 20.9 0.00 0.00 0.00 60 1018.4
20260506163139 8 269 22.5 27.4 0.00 0.00 0.00 64 1018.2
20260506162635 7 262 16.1 17.7 0.00 0.00 0.00 69 1017.9
20260506162133 7 271 19.3 22.5 0.00 0.00 0.00 65 1018.0
20260506161630 7 242 11.3 14.5 0.00 0.00 0.00 64 1018.0
20260506161127 8 299 24.1 30.6 0.00 0.00 0.00 58 1017.6
20260506160625 10 303 22.5 30.6 0.00 0.00 0.00 54 1017.5
20260506160121 10 250 12.9 16.1 0.00 0.00 0.00 56 1017.4
20260506155620 10 229 9.7 12.9 0.00 0.00 0.00 56 1017.3
20260506155116 8 259 27.4 37.0 0.00 0.00 0.00 56 1017.0
20260506153218 8 261 16.1 20.9 0.00 0.00 0.00 56 1017.0
20260506152715 10 269 22.5 25.7 0.00 0.00 0.00 54 1016.8
20260506152212 9 254 16.1 17.7 0.00 0.00 0.00 55 1016.5
20260506151712 9 222 17.7 20.9 0.00 0.00 0.00 57 1016.8
20260506151208 9 314 14.5 17.7 0.00 0.00 0.00 58 1016.8
20260506150704 9 296 17.7 20.9 0.00 0.00 0.00 58 1016.8
20260506150201 8 269 19.3 24.1 0.00 0.00 0.00 59 1016.6
20260506145658 8 271 11.3 12.9 0.00 0.00 0.00 59 1016.6
20260506145154 8 262 14.5 16.1 0.00 0.00 0.00 59 1016.4
20260506144652 8 281 11.3 16.1 0.00 0.00 0.00 59 1016.6
20260506144149 9 278 6.4 11.3 0.00 0.00 0.00 58 1016.4
20260506143646 8 258 14.5 16.1 0.00 0.00 0.00 58 1016.9
20260506143144 8 233 6.4 6.4 0.00 0.00 0.00 60 1016.5
20260506142643 7 240 9.7 11.3 0.00 0.00 0.00 60 1016.4
20260506142140 7 265 9.7 11.3 0.00 0.00 0.00 61 1016.4
20260506141637 6 288 9.7 9.7 0.00 0.00 0.00 64 1016.3
20260506141136 6 197 6.4 9.7 0.00 0.00 0.00 64 1016.2
20260506140633 6 281 9.7 12.9 0.00 0.00 0.00 65 1016.5
20260506140130 6 183 3.2 4.8 0.00 0.00 0.00 66 1016.3
20260506135627 6 242 8.0 11.3 0.00 0.00 0.00 66 1016.3
20260506135123 6 278 9.7 11.3 0.00 0.00 0.00 66 1016.5
20260506134620 6 280 9.7 12.9 0.00 0.00 0.00 66 1016.3
20260506134115 6 257 6.4 11.3 0.00 0.00 0.00 66 1016.3
20260506133613 6 279 4.8 6.4 0.00 0.00 0.00 66 1015.9
20260506133110 6 194 3.2 4.8 0.00 0.00 0.00 66 1016.0
20260506132608 6 235 3.2 3.2 0.00 0.00 0.00 66 1016.0
20260506132104 6 198 3.2 4.8 0.00 0.00 0.00 66 1015.8
20260506131601 6 266 3.2 4.8 0.00 0.00 0.00 66 1015.8
20260506131057 6 316 8.0 11.3 0.00 0.00 0.00 67 1015.4
20260506130554 5 275 11.3 12.9 0.00 0.00 0.00 67 1015.0
20260506130052 6 261 11.3 14.5 0.00 0.00 0.00 67 1015.2
20260506125550 6 258 12.9 16.1 0.00 0.00 0.00 67 1015.7
20260506125048 6 266 11.3 14.5 0.00 0.00 0.00 68 1015.4
20260506124545 5 259 11.3 12.9 0.00 0.00 0.00 69 1015.4
20260506124043 5 266 8.0 11.3 0.00 0.00 0.00 69 1014.9
20260506123540 5 224 9.7 11.3 0.00 0.00 0.00 69 1014.9
20260506123039 6 310 4.8 9.7 0.00 0.00 0.00 68 1014.9
20260506122535 6 239 8.0 11.3 0.00 0.00 0.00 68 1014.9
20260506122033 5 213 4.8 6.4 0.00 0.00 0.00 63 1015.0
20260506121531 5 273 11.3 17.7 0.00 0.00 0.00 62 1014.9
20260506121026 5 200 4.8 6.4 0.00 0.00 0.00 60 1014.6
20260506120525 5 236 11.3 12.9 0.00 0.00 0.00 59 1014.6
20260506120022 5 300 11.3 12.9 0.00 0.00 0.00 58 1014.6
20260506115520 6 224 4.8 4.8 0.00 0.00 0.00 56 1014.6
20260506115018 6 252 11.3 12.9 0.00 0.00 0.00 56 1014.6
20260506114515 6 261 14.5 17.7 0.00 0.00 0.00 56 1014.3
20260506114014 6 259 17.7 22.5 0.00 0.00 0.00 54 1014.4
20260506113511 6 298 20.9 24.1 0.00 0.00 0.00 54 1014.2
20260506113008 6 233 14.5 17.7 0.00 0.00 0.00 54 1013.8
20260506112504 6 275 14.5 20.9 0.00 0.00 0.00 54 1013.6
20260506112002 6 253 8.0 11.3 0.00 0.00 0.00 53 1013.8
20260506111500 6 258 14.5 17.7 0.00 0.00 0.00 53 1013.7
20260506110956 6 276 16.1 17.7 0.00 0.00 0.00 53 1013.6
20260506110454 6 287 14.5 16.1 0.00 0.00 0.00 54 1013.5
20260506105951 5 232 11.3 14.5 0.00 0.00 0.00 54 1013.2
20260506105447 5 295 12.9 14.5 0.00 0.00 0.00 55 1013.2
20260506104945 5 280 11.3 14.5 0.00 0.00 0.00 55 1013.0
20260506104443 5 287 11.3 14.5 0.00 0.00 0.00 55 1013.3
20260506103941 5 269 11.3 14.5 0.00 0.00 0.00 54 1013.2
20260506103437 5 232 9.7 11.3 0.00 0.00 0.00 54 1013.2
20260506102934 5 278 11.3 12.9 0.00 0.00 0.00 55 1013.5
20260506102432 5 265 20.9 24.1 0.00 0.00 0.00 55 1013.5
20260506101929 5 281 9.7 11.3 0.00 0.00 0.00 56 1013.5
20260506101426 4 283 11.3 12.9 0.00 0.00 0.00 56 1013.2
20260506100923 4 233 11.3 14.5 0.00 0.00 0.00 57 1013.3
20260506100421 4 247 11.3 12.9 0.00 0.00 0.00 56 1013.2
20260506095919 4 261 12.9 14.5 0.00 0.00 0.00 57 1013.1
20260506095417 3 253 11.3 12.9 0.00 0.00 0.00 57 1013.2
20260506094913 3 265 12.9 16.1 0.00 0.00 0.00 57 1013.2
20260506094412 3 258 14.5 16.1 0.00 0.00 0.00 58 1013.5
20260506093909 3 273 12.9 14.5 0.00 0.00 0.00 58 1013.1
20260506093407 3 254 9.7 11.3 0.00 0.00 0.00 57 1013.1
20260506092904 3 259 12.9 14.5 0.00 0.00 0.00 57 1013.5
20260506092402 4 256 14.5 16.1 0.00 0.00 0.00 57 1013.5
20260506091858 4 272 17.7 20.9 0.00 0.00 0.00 56 1013.3
20260506091357 4 274 20.9 24.1 0.00 0.00 0.00 56 1013.2
20260506090853 4 262 16.1 17.7 0.00 0.00 0.00 56 1013.1
20260506090351 4 270 14.5 16.1 0.00 0.00 0.00 56 1012.8
20260506085848 4 268 11.3 12.9 0.00 0.00 0.00 55 1013.0
20260506085344 4 286 9.7 11.3 0.00 0.00 0.00 57 1013.3
20260506084841 4 244 9.7 12.9 0.00 0.00 0.00 58 1013.2
20260506084338 4 259 6.4 9.7 0.00 0.00 0.00 58 1013.7
20260506083834 4 239 8.0 11.3 0.00 0.00 0.00 57 1013.3
20260506083331 3 264 9.7 11.3 0.00 0.00 0.00 59 1013.2
20260506082829 4 237 6.4 6.4 0.00 0.00 0.00 59 1013.3
20260506082325 4 256 9.7 11.3 0.00 0.00 0.00 59 1013.1
20260506081821 4 265 8.0 11.3 0.00 0.00 0.00 58 1013.0
20260506081320 4 230 8.0 11.3 0.00 0.00 0.00 57 1013.3
20260506080817 4 266 11.3 12.9 0.00 0.00 0.00 58 1013.2